Regional Weather Roundup
Issued by NWS Grand Forks, ND

Home | Current Version | Previous Version | Graphics & Text | Print | Product List | Glossary On
Versions: 1 2 3 4 5 6 7 8 9 10 11 12 13 14 15 16 17 18 19 20 21 22 23 24 25 26 27 28 29 30 31 32 33 34 35 36 37 38 39 40 41 42 43 44 45 46 47 48 49 50
000
ASUS43 KFGF 181510
RWRFGF
PRAIRIE TO PINES  WEATHER ROUNDUP
NATIONAL WEATHER SERVICE EASTERN NORTH DAKOTA/GRAND FORKS ND
1000 AM CDT THU SEP 18 2014

 **SATELLITE DATA USED TO AUGMENT SKY COVER AT AUTOMATED STATIONS**
 *****  WEATHER ACROSS EASTERN NORTH DAKOTA  *****

CITY           SKY/WX    TMP DP  RH WIND       PRES   REMARKS
GRAND FORKS    FOG       49  49 100 SE13      29.98F VSB 1/4
GRAND FRKS AFB FOG       48  48 100 S10       29.98S VSB 1/2
GRAND FRKS NWS   N/A     50 N/A N/A S9          N/A
DEVILS LAKE    SUNNY     55  46  71 SE13      29.90F
FARGO          CLOUDY    55  51  86 SE9       29.99F
WAHPETON ARPT  CLOUDY    52  48  87 SE13      30.02S
$$

 ***** WEATHER ACROSS CENTRAL AND WESTERN NORTH DAKOTA  *****

CITY           SKY/WX    TMP DP  RH WIND       PRES   REMARKS
BISMARCK       SUNNY     61  54  77 SE12      29.87F
MINOT          SUNNY     60  51  72 SE12      29.82F
JAMESTOWN      SUNNY     57  51  80 S8        29.93F
MINOT AFB      MOSUNNY   58  55  91 S12       29.80F
GARRISON         N/A     60  52  74 S7        29.83F
WILLISTON      SUNNY     62  50  64 S10       29.73F
DICKINSON      SUNNY     61  51  70 S16       29.79F
HETTINGER      SUNNY     59  51  75 S10       29.85F
$$

 *****  OTHER AIRPORT OBSERVATIONS IN OUR AREA  *****

CITY           SKY/WX    TMP DP  RH WIND       PRES   REMARKS
WALHALLA         N/A     48  48 100 S14       29.95F
GRAFTON AIRPOR FOG       45  45 100 SE10      29.97F VSB 3/4
VALLEY CITY AR CLOUDY    50  50 100 SE10      29.96S FOG
CANDO          FAIR      55  50  82 S13       29.90F
CAVALIER APRT  FAIR      48  45  87 S12       29.96F
GWINNER        CLOUDY    54  54 100 SE12      29.98S
SHEYENNE NWR     N/A     52  52  99 SE13      29.95
ROLLA          FAIR      54  50  87 S14       29.90F
 ***** THE ABOVE OBSERVATIONS ARE NON NWS ARE NOT QUALITY
       CONTROLLED AND MAY MIS-REPORT RAIN FOR SNOW...
$$

  *****  WEATHER ACROSS NORTHERN MINNESOTA  *****

CITY           SKY/WX    TMP DP  RH WIND       PRES   REMARKS
FLAG ISLAND    CLOUDY    45  43  93 SE16G22   30.04S
WARROAD        CLOUDY    46  43  87 SE9       30.04S FOG
ROSEAU         CLOUDY    48  45  87 S10       30.02F HAZE
HALLOCK        CLOUDY    48  46  93 SE10      29.98F
THF RVR FALLS  CLOUDY    48  46  93 SE12      30.01S
BAUDETTE       CLOUDY    44  43  96 SE8       30.06F FOG
WASKISH        CLOUDY    46  45  93 SE5       30.07S
CROOKSTON      CLOUDY    50  48  93 SE12      30.01S FOG
STEPHEN NDAWN    N/A     50  50 100 SE12        N/A
GREENBUSH NDAW   N/A     48  48 100 SE9         N/A
$$
  *****  WEATHER ACROSS CENTRAL AND WEST MINNESOTA  *****

CITY           SKY/WX    TMP DP  RH WIND       PRES   REMARKS
FOSSTON        CLOUDY    48  48 100 SE8       30.03S
BEMIDJI        SUNNY     48  40  74 SE12      30.06F
PARK RAPIDS    CLOUDY    46  41  82 SE10      30.07S
ELBOW LAKE     CLOUDY    50  49  96 SE10      30.03S
WADENA         CLOUDY    45  45 100 E8        30.06S
DETROIT LAKES  CLOUDY    48  46  93 SE12      30.04F FOG
MOORHEAD       CLOUDY    55  55 100 S12       30.01S
FERGUS FALLS   CLOUDY    52  48  87 SE6       30.04S
MORRIS MN      CLOUDY    52  50  93 SE13      30.03S FOG
STAPLES        CLOUDY    45  43  93 SE6       30.08S
$$
  *****  WEATHER ELSEWHERE ACROSS MINNESOTA  *****

CITY           SKY/WX    TMP DP  RH WIND       PRES   REMARKS
DULUTH         PTSUNNY   45  38  76 E18       30.15R
INTRNTL FALLS  CLOUDY    43  42  97 SE8       30.10F
ELY            CLOUDY    43  36  75 SE7       30.14S
CLOQUET        CLOUDY    45  37  76 E9        30.14R
WHEATON        CLOUDY    48  48 100 SE10      30.04S FOG
BRAINERD       CLOUDY    45  43  93 SE7       30.11R
HIBBING        SUNNY     48  38  68 SE9       30.12S
ALEXANDRIA     FOG       48  48 100 E10       30.07S VSB 1/2
SAINT CLOUD    CLOUDY    50  47  89 E6        30.10R
MINNEAPOLIS    PTSUNNY   53  49  86 SE8       30.10S
$$

  *****  WEATHER ACROSS SOUTH DAKOTA  *****

CITY           SKY/WX    TMP DP  RH WIND       PRES   REMARKS
SIOUX FALLS    MOSUNNY   67  59  75 S13       30.02R
BROOKINGS      NOT AVBL
WATERTOWN      SUNNY     63  56  78 S13       29.99S
HURON          PTSUNNY   62  56  80 S9        29.96S THUNDER
SISSETON         N/A     52  52 100 S10       30.00S
ABERDEEN       SUNNY    N/A N/A N/A S9        29.95F
MITCHELL       PTSUNNY   63  59  87 SE9       29.98S
PIERRE         SUNNY     65  58  78 SE14      29.87F
MOBRIDGE       SUNNY     64  55  72 SE15      29.85F
RAPID CITY     SUNNY     62  55  77 SE6       29.86S
$$

  *****  SOME WEATHER IN NEARBY STATES *****

CITY           SKY/WX    TMP DP  RH WIND       PRES   REMARKS
GLASGOW MT     PTSUNNY   60  51  72 SE8       29.66S
GREAT FALLS MT CLOUDY    67  43  41 S10       29.72R
CHEYENNE WY    SUNNY     69  41  36 W6        30.10S
SCOTTSBLUFF NE FOG       56  56 100 CALM      29.97F VSB 3/4
OMAHA NE       PTSUNNY   65  59  81 SE12      30.04S
DES MOINES IA  FOG       59  58  96 E7        30.10R VSB 1/4
DAVENPORT IA   SUNNY     63  53  70 E3        30.14R
CHICAGO IL     MOSUNNY   62  55  77 NE9       30.15S
EAU CLAIRE WI  CLOUDY    49  47  93 SE9       30.15R FOG
LA CROSSE WI   CLOUDY    53  50  89 SE8       30.16R
$$

  *****  SOME NATIONAL WEATHER *****

CITY           SKY/WX    TMP DP  RH WIND       PRES   REMARKS
LA GUARDIA NY  MOSUNNY   69  50  50 NW6       30.01R
RALEIGH NC     PTSUNNY   72  60  66 S5        30.03R
ATLANTA GA     MOSUNNY   75  64  68 E5        30.02R
NEW ORLEANS LA PTSUNNY   83  74  74 NE7       29.95R
OKLAHOMA CITY  RAIN      67  61  81 E18G30    30.02R
ALBUQUERQUE NM MOSUNNY   62  52  69 N5        30.10S
SALT LAKE CITY MOSUNNY   73  46  38 SE9       29.92S
LOS ANGELES CA MOSUNNY   69  62  78 W7        29.86R
BOISE ID       CLOUDY    73  41  31 S3        29.80R
SEATTLE WA     CLOUDY    60  58  92 SE5       29.79R
$$

*** WEATHER ACROSS MANITOBA...SASKATCHEWAN AND ONTARIO ***
                ***ONTARIO***

CITY           SKY/WX    TMP DP  RH WIND       PRES   REMARKS
GERALDTON      MOSUNNY   43  36  75 NW7       30.21S
THUNDER BAY    PTSUNNY   41  34  75 E2        30.23S
SIOUX LOOKOUT  PTSUNNY   43  37  81 S10       30.12F
TORONTO        CLOUDY    52  45  76 N12       30.13R
BIG TROUT LK   SUNNY     37  27  65 S10       30.12F
PICKLE LAKE    MOSUNNY   45  32  61 S6        30.13F
DRYDEN         CLOUDY    43  37  81 S9        30.10S
KENORA         CLOUDY    43  41  93 SE12G20   30.05F
$$
                *** MANITOBA***

CITY           SKY/WX    TMP DP  RH WIND       PRES   REMARKS
BRANDON        PTSUNNY   46  45  93 E7        29.86F
DAUPHIN        SUNNY     48  43  81 VRB2      29.81F
ISLAND LAKE    PTSUNNY   41  34  75 S10       29.98F
PILOT MOUND      N/A     54  48  82 S13         N/A
THE PAS        MOSUNNY   48  43  81 S17       29.67
THOMPSON       LGT RAIN  41  41 100 S10       29.74F
WINNIPEG       PTSUNNY   48  43  81 S15       29.97F
LYNN LAKE      CLOUDY    43  41  93 S14G22    29.55F
GILLAM         LGT RAIN  36  30  80 S9        29.87
$$
                ***SASKATCHEWAN***

CITY           SKY/WX    TMP DP  RH WIND       PRES   REMARKS
ESTEVAN        PTSUNNY   59  52  77 SE10      29.73F
KINDERSLEY     CLOUDY    57  50  77 SW5       29.52F
LLOYDMINSTER   NOT AVBL
PRINCE ALBERT  NOT AVBL
REGINA         PTSUNNY   55  50  82 SE13G22   29.65F
YORKTON        SUNNY     50  45  81 S12G21    29.72F
N. BATTLEFORD  SUNNY     50  46  87 S3        29.54F
LA RONGE       NOT AVBL
SASKATOON      PTSUNNY   55  48  76 S8        29.56F
SWIFT CURRENT  MOSUNNY   63  50  63 SW16      29.59F
$$
NOTE: THESE ARE AUTOMATED STATIONS WITH LIMITED QUALITY CONTROL
      "FAIR" INDICATES FEW OR NO CLOUDS BELOW 12,000 FEET WITH NO
      SIGNIFICANT WEATHER AND/OR OBSTRUCTIONS TO VISIBILITY.
      SKY/WX - SKY CONDITION AND SIGNIFICANT WEATHER.
      TMP - AIR TEMPERATURE.    DP   - DEWPOINT TEMPERATURE.
      RH  - RELATIVE HUMIDITY.  PRES - PRESSURE.
      HX  - HEAT INDEX.         WCI  - WIND CHILL INDEX.
$



USA.gov is the U.S. government's official web portal to all federal, state and local government web resources and services.